This is the latest recevied weather packets stored in our database for station/object 9W3FAB-1. If no packets are shown the sender has not sent any weather packets the latest 10 day(s).
| Time | Temp. | Humidity | Pressure | Rain* | Wind** | Luminosity | Snow |
|---|---|---|---|---|---|---|---|
| 1777640527 | 27.78° C | 100% | 1007.9 hPa | - | - | - | - |
| 1777639626 | 27.78° C | 100% | 1007.4 hPa | - | - | - | - |
| 1777638725 | 27.78° C | 100% | 1007.2 hPa | - | - | - | - |
| 1777637824 | 28.33° C | 100% | 1006.9 hPa | - | - | - | - |
| 1777636923 | 28.33° C | 100% | 1006.5 hPa | - | - | - | - |
| 1777636023 | 28.89° C | 100% | 1006.4 hPa | - | - | - | - |
| 1777635122 | 28.89° C | 100% | 1006.3 hPa | - | - | - | - |
| 1777634221 | 28.33° C | 100% | 1005.9 hPa | - | - | - | - |
| 1777633316 | 28.89° C | 100% | 1005.2 hPa | - | - | - | - |
| 1777632415 | 28.33° C | 100% | 1005.4 hPa | - | - | - | - |
| 1777631514 | 27.78° C | 100% | 1005.6 hPa | - | - | - | - |
| 1777630614 | 28.33° C | 100% | 1005.4 hPa | - | - | - | - |
| 1777629713 | 28.89° C | 100% | 1005.3 hPa | - | - | - | - |
| 1777628812 | 29.44° C | 100% | 1005.2 hPa | - | - | - | - |
| 1777627911 | 29.44° C | 100% | 1005 hPa | - | - | - | - |
| 1777627010 | 30° C | 100% | 1004.7 hPa | - | - | - | - |
| 1777626109 | 30° C | 100% | 1004.4 hPa | - | - | - | - |
| 1777625209 | 30° C | 100% | 1004.4 hPa | - | - | - | - |
| 1777624308 | 30° C | 100% | 1004.2 hPa | - | - | - | - |
| 1777623407 | 30° C | 100% | 1004.2 hPa | - | - | - | - |
| 1777622506 | 30° C | 100% | 1004.1 hPa | - | - | - | - |
| 1777621605 | 30.56° C | 100% | 1004.4 hPa | - | - | - | - |
| 1777620705 | 30.56° C | 100% | 1004.7 hPa | - | - | - | - |
| 1777619804 | 31.11° C | 100% | 1004.7 hPa | - | - | - | - |
| 1777618903 | 31.67° C | 100% | 1004.9 hPa | - | - | - | - |
* Rain since midnight (hover to see other rain measurements)
** Current wind speed in m/s (hover to see current wind gust speed)